Amsterdam, Netherlands

10:56 PM CEST on June 19, 2018 (GMT +0200)
Schiphol

Weather History for EHAM - December, 2017

Change the Weather History Date:

Thursday, December 7, 2017

  Actual Average Record
Temperature  
Mean Temperature 43 °F -  
Max Temperature 46 °F 42 °F 55 °F (2007)
Min Temperature 40 °F 34 °F 26 °F (2003)
Degree Days  
Heating Degree Days 22    
Moisture  
Dew Point 38 °F    
Average Humidity 80    
Maximum Humidity 100    
Minimum Humidity 61    
Precipitation  
Precipitation 0.28 in - - ()
Sea Level Pressure  
Sea Level Pressure 29.84 in    
Wind  
Wind Speed 20 mph ()    
Max Wind Speed 29 mph    
Max Gust Speed 40 mph    
Visibility 6.8 miles    
Events Rain    
Averages and records for this station are not official NWS values.
T = Trace of Precipitation, MM = Missing Value Source: Averaged Metar Reports

Daily Weather History Graph

Daily Weather History Graph

Search for Another Location

Airport or City:

Astronomy

Dec. 07, 2017 Rise Set
Actual Time 8:36 AM CET 4:28 PM CET
Civil Twilight 7:55 AM CET 5:09 PM CET
Nautical Twilight 7:11 AM CET 5:52 PM CET
Astronomical Twilight 6:30 AM CET 6:34 PM CET
Moon 9:10 PM CET (12/7) 11:52 AM CET (12/7)
Length of Visible Light 9h 13m
Length of Day
7h 52m
Waning Gibbous, 80% of the Moon is Illuminated
Dec 7
Waning Gibbous
Dec 10
Last Quarter
Dec 18
New
Dec 26
First Quarter
Jan 2
Full

Hourly Weather History & Observations

Time (CET) Temp. Windchill Dew Point Humidity Pressure Visibility Wind Dir Wind Speed Gust Speed Precip Events Conditions
12:00 AM 45 °F - 38 °F 68% 30.17 in 25 mi SSW 17.9 mph - -   Partly Cloudy
12:25 AM 44.6 °F 36.9 °F 37.4 °F 76% 30.15 in 6.2 mi SSW 18.4 mph - N/A   Overcast
12:55 AM 44.6 °F 36.9 °F 37.4 °F 76% 30.15 in 6.2 mi SSW 18.4 mph - N/A   Overcast
1:00 AM 44 °F - 38 °F 71% 30.15 in 22 mi SSW 20.1 mph - -   Partly Cloudy
1:25 AM 44.6 °F 37.2 °F 37.4 °F 76% 30.12 in 6.2 mi SSW 17.3 mph - N/A   Overcast
1:55 AM 44.6 °F 35.5 °F 35.6 °F 71% 30.12 in 6.2 mi SSW 25.3 mph - N/A   Overcast
2:00 AM 44 °F - 35 °F 61% 30.12 in 28 mi SSW 24.6 mph - -   Partly Cloudy
2:25 AM 44.6 °F 36.1 °F 35.6 °F 71% 30.09 in 6.2 mi SSW 21.9 mph - N/A   Overcast
2:55 AM 44.6 °F 36.6 °F 35.6 °F 71% 30.09 in 6.2 mi SSW 19.6 mph - N/A   Overcast
3:00 AM 44 °F - 36 °F 63% 30.09 in 19 mi SSW 17.9 mph - -   Partly Cloudy
3:25 AM 42.8 °F 34.0 °F 35.6 °F 76% 30.06 in 6.2 mi SSW 20.7 mph - N/A   Overcast
3:55 AM 42.8 °F 33.8 °F 35.6 °F 76% 30.06 in 6.2 mi SSW 21.9 mph - N/A   Mostly Cloudy
4:00 AM 43 °F - 36 °F 67% 30.07 in 15 mi SSW 20.1 mph - -   Partly Cloudy
4:25 AM 42.8 °F 34.0 °F 35.6 °F 76% 30.04 in 6.2 mi SSW 20.7 mph - N/A   Mostly Cloudy
4:55 AM 41.0 °F 32.2 °F 35.6 °F 81% 30.04 in 6.2 mi SSW 18.4 mph - N/A   Mostly Cloudy
5:00 AM 41 °F - 35 °F 72% 30.04 in 16 mi SSW 20.1 mph - -   Partly Cloudy
5:25 AM 41.0 °F 31.9 °F 35.6 °F 81% 30.01 in 6.2 mi South 19.6 mph - N/A   Partly Cloudy
5:55 AM 41.0 °F 32.2 °F 35.6 °F 81% 30.01 in 6.2 mi South 18.4 mph - N/A   Mostly Cloudy
6:00 AM 41 °F - 35 °F 73% 30.00 in 15 mi South 20.1 mph - -   Overcast
6:25 AM 41.0 °F 31.4 °F 35.6 °F 81% 29.98 in 6.2 mi South 21.9 mph - N/A   Mostly Cloudy
6:55 AM 41.0 °F 31.1 °F 35.6 °F 81% 29.95 in 6.2 mi SSW 23.0 mph 34.5 mph N/A   Mostly Cloudy
7:00 AM 41 °F - 35 °F 73% 29.96 in 11 mi South 24.6 mph - -   Partly Cloudy
7:25 AM 41.0 °F 30.9 °F 35.6 °F 81% 29.95 in 6.2 mi South 24.2 mph - N/A   Overcast
7:55 AM 41.0 °F 30.9 °F 35.6 °F 81% 29.92 in 6.2 mi South 24.2 mph - N/A   Partly Cloudy
8:00 AM 41 °F - 35 °F 73% 29.93 in 11 mi South 24.6 mph - -   Overcast
8:25 AM 41.0 °F 31.1 °F 35.6 °F 81% 29.92 in 6.2 mi South 23.0 mph 34.5 mph N/A   Scattered Clouds
8:55 AM 41.0 °F 31.6 °F 35.6 °F 81% 29.92 in 6.2 mi South 20.7 mph - N/A   Overcast
9:00 AM 41 °F - 36 °F 75% 29.92 in 11 mi South 20.1 mph - -   Overcast
9:25 AM 41.0 °F 31.6 °F 35.6 °F 81% 29.89 in 6.2 mi South 20.7 mph - N/A   Overcast
9:55 AM 41.0 °F 31.1 °F 35.6 °F 81% 29.89 in 6.2 mi SSW 23.0 mph - N/A   Mostly Cloudy
10:25 AM 41.0 °F 30.7 °F 35.6 °F 81% 29.86 in 6.2 mi South 25.3 mph - N/A   Mostly Cloudy
10:55 AM 41.0 °F 30.2 °F 37.4 °F 87% 29.86 in 6.2 mi South 27.6 mph - N/A   Overcast
11:00 AM 42 °F - 37 °F 75% 29.86 in 10 mi South 26.8 mph - -   Partly Cloudy
11:25 AM 41.0 °F 30.7 °F 37.4 °F 87% 29.83 in 6.2 mi South 25.3 mph - N/A Rain Light Rain
11:55 AM 42.8 °F 32.9 °F 37.4 °F 81% 29.80 in 6.2 mi South 26.5 mph - N/A   Overcast
12:00 PM 42 °F - 38 °F 79% 29.81 in 9 mi South 24.6 mph - - Rain Rain
12:25 PM 42.8 °F 32.9 °F 39.2 °F 87% 29.77 in 4.3 mi SSW 26.5 mph - N/A Rain Light Rain
12:55 PM 42.8 °F 32.9 °F 39.2 °F 87% 29.77 in 4.3 mi SSW 26.5 mph - N/A Rain Light Rain
1:00 PM 42 °F - 39 °F 87% 29.77 in 5 mi SSW 26.8 mph - - Rain Light Rain Showers
1:25 PM 42.8 °F 32.9 °F 41.0 °F 93% 29.74 in 5.6 mi SSW 26.5 mph 39.1 mph N/A   Light Drizzle
1:55 PM 42.8 °F 32.7 °F 41.0 °F 93% 29.71 in 2.8 mi SSW 27.6 mph - N/A Rain Light Rain
2:00 PM 43 °F - 40 °F 87% 29.73 in 4 mi SSW 26.8 mph - - Rain Light Drizzle
2:55 PM 44.6 °F 34.9 °F 41.0 °F 87% 29.68 in 4.3 mi SSW 28.8 mph 40.3 mph N/A Rain Light Rain
3:00 PM 44 °F - 42 °F 88% 29.68 in 5 mi SSW 29.1 mph - - Rain Drizzle
3:25 PM 44.6 °F 35.3 °F 42.8 °F 93% 29.68 in 2.2 mi SSW 26.5 mph - N/A Rain Rain
3:55 PM 44.6 °F 35.5 °F 42.8 °F 93% 29.65 in 2.8 mi SSW 25.3 mph - N/A Rain Rain
4:00 PM 44 °F - 42 °F 91% 29.67 in 4 mi SSW 24.6 mph - - Rain Rain
4:25 PM 44.6 °F 35.7 °F 42.8 °F 93% 29.65 in 3.7 mi SSW 24.2 mph - N/A Rain Rain
4:55 PM 44.6 °F 35.9 °F 42.8 °F 93% 29.65 in 4.3 mi SSW 23.0 mph - N/A Rain Rain
5:00 PM 45 °F - 43 °F 89% 29.66 in 6 mi SSW 24.6 mph - - Rain Rain
5:25 PM 44.6 °F 35.7 °F 42.8 °F 93% 29.62 in 2.5 mi SSW 24.2 mph - N/A Rain Light Rain
5:55 PM 44.6 °F 36.6 °F 44.6 °F 100% 29.65 in 1.9 mi SW 19.6 mph - N/A Rain Light Rain
6:00 PM 45 °F - 44 °F 94% 29.66 in 2 mi West 15.7 mph - - Rain Heavy Rain
6:25 PM 44.6 °F 37.4 °F 42.8 °F 93% 29.65 in 6.2 mi West 16.1 mph - N/A   Overcast
6:55 PM 44.6 °F 38.4 °F 41.0 °F 87% 29.65 in 6.2 mi West 12.7 mph - N/A   Scattered Clouds
7:00 PM 45 °F - 41 °F 80% 29.68 in 8 mi West 13.4 mph - - Rain Rain
7:25 PM 44.6 °F 38.4 °F 39.2 °F 81% 29.68 in 6.2 mi West 12.7 mph - N/A   Scattered Clouds
7:55 PM 44.6 °F 38.4 °F 39.2 °F 81% 29.65 in 6.2 mi West 12.7 mph - N/A   Partly Cloudy
8:00 PM 45 °F - 39 °F 74% 29.68 in 9 mi West 15.7 mph - -   Overcast
8:25 PM 46.4 °F 39.8 °F 39.2 °F 76% 29.68 in 6.2 mi West 16.1 mph - N/A   Partly Cloudy
8:55 PM 46.4 °F 40.1 °F 39.2 °F 76% 29.68 in 6.2 mi West 15.0 mph - N/A   Partly Cloudy
9:00 PM 46 °F - 39 °F 68% 29.68 in 9 mi West 17.9 mph - -   Overcast
9:25 PM 44.6 °F 37.4 °F 39.2 °F 81% 29.68 in 6.2 mi West 16.1 mph - N/A   Partly Cloudy
9:55 PM 46.4 °F 39.0 °F 37.4 °F 71% 29.68 in 6.2 mi West 19.6 mph - N/A   Scattered Clouds
10:00 PM 46 °F - 37 °F 62% 29.70 in 11 mi West 20.1 mph - -   Partly Cloudy
10:25 PM 44.6 °F 37.2 °F 37.4 °F 76% 29.68 in 6.2 mi West 17.3 mph - N/A   Scattered Clouds
10:55 PM 44.6 °F 36.1 °F 35.6 °F 71% 29.68 in 6.2 mi West 21.9 mph - N/A   Partly Cloudy
11:00 PM 44 °F - 36 °F 65% 29.70 in 12 mi West 22.4 mph - -   Partly Cloudy
11:25 PM 44.6 °F 36.1 °F 35.6 °F 71% 29.68 in 6.2 mi West 21.9 mph - N/A   Partly Cloudy
11:55 PM 44.6 °F 36.1 °F 35.6 °F 71% 29.71 in 6.2 mi West 21.9 mph - N/A   Scattered Clouds